Location: Newark
(52.3500°N, 175.9667°E)
Time: 21:17:28
(UTC+00:00)

Altair - Pass Details

Date: 28 April 2021
Orbit: 1501 x 1683 km, 47.2° (Epoch: 05 May)

Event Time Altitude Azimuth Distance (km) Brightness Sun altitude
Rises 13:26:29 0° 175° (S) 4,918 - -21.5°
Reaches altitude 10° 13:31:46 10° 153° (SSE) 3,919 - -21.2°
Exits shadow 13:32:07 11° 151° (SSE) 3,870 9.2 -21.2°
Maximum altitude 13:36:19 14° 126° (SE) 3,574 9.3 -21.0°
Drops below altitude 10° 13:40:50 10° 98° (E) 3,878 9.8 -20.7°
Sets 13:45:57 0° 76° (ENE) 4,832 10.7 -20.4°
